RH
40 34 46 65 68 68 71 62 61 53 49 45 39 30 23 20 16 14 13 12 12 12 12 12 12 12 12 12 13 13 13 14 14 16 17 18 22 27 28 28 29 31 31
53 34 36 48 65 67 70 71 67 55 46 43 37 28 29 26 19 18 17 15 13 13 12 12 12 12 12 12 12 13 14 14 16 17 19 20 24 27 28 28 29 30 31
60 47 33 36 50 62 68 69 71 61 46 42 33 26 28 32 29 24 23 21 17 15 13 12 12 12 13 13 13 14 15 16 18 20 22 23 26 27 28 29 30 30 31
58 61 53 41 30 35 41 38 33 44 42 34 26 25 31 36 34 33 25 21 18 16 15 14 13 12 13 13 14 15 16 16 18 21 24 25 26 26 27 28 28 29 30
69 57 53 60 56 46 27 50 29 24 27 26 25 33 36 35 33 28 23 19 17 16 16 16 14 14 13 13 14 16 16 17 18 20 22 23 24 26 26 25 26 27 29
55 66 70 68 60 51 30 73 56 34 32 33 34 37 37 31 31 29 27 25 22 21 21 20 19 17 15 14 14 15 16 17 18 18 19 20 20 23 23 23 25 26 30
58 59 64 59 59 43 34 27 49 56 35 33 36 35 36 33 31 32 31 30 26 25 26 24 21 18 17 16 16 16 17 18 19 18 19 20 21 22 23 24 27 28 30
26 50 54 70 75 78 56 44 55 83 67 41 32 30 27 29 32 34 34 34 30 28 31 26 24 22 20 18 17 18 18 19 19 19 20 20 22 24 26 28 30 31 32
20 20 32 44 63 69 60 45 38 35 59 34 26 23 28 28 26 29 34 36 36 34 38 34 28 26 24 22 21 20 20 21 21 22 23 24 26 27 28 30 32 34 34
16 18 18 34 46 56 57 38 39 38 42 40 62 70 54 83 65 79 57 32 35 38 39 38 30 27 25 24 22 22 23 23 24 25 26 27 29 30 31 33 35 37 40
16 14 18 27 42 52 62 51 31 27 32 62 80 90 95 94 94 80 68 40 61 59 32 29 29 32 27 25 25 24 26 26 27 28 29 30 32 33 34 35 37 39 42
16 15 13 18 39 50 60 68 48 29 26 23 27 55 84 96 98 97 98 99 89 48 31 30 29 27 26 26 26 26 27 28 28 31 31 33 35 36 38 39 41 43 46
23 21 16 13 26 46 54 68 77 56 34 29 30 32 54 88 90 86 87 93 90 38 33 28 26 26 27 28 28 29 29 30 31 32 33 35 38 37 41 45 49 53 53
22 22 21 16 22 43 50 60 71 74 66 64 54 45 40 37 33 45 51 44 47 46 27 27 26 26 26 27 28 30 31 32 32 34 34 36 36 38 41 45 48 54 53
20 20 21 21 25 36 41 48 56 62 66 66 67 65 66 60 54 43 37 40 40 34 32 30 31 30 30 29 30 30 31 33 34 36 39 41 42 48 45 58 77 88 86
24 26 26 32 38 39 37 34 32 40 53 57 65 70 74 73 73 78 75 57 48 50 48 40 37 34 35 33 33 35 35 36 33 30 32 37 45 50 59 69 96 91 100
29 32 29 28 28 33 32 27 28 32 37 47 55 64 68 70 72 72 69 72 74 68 54 53 50 42 43 44 44 51 46 50 46 40 39 42 48 63 88 99 98 81 98
30 28 28 36 38 32 33 37 44 53 58 58 62 66 65 62 66 72 70 67 69 70 73 74 86 70 57 57 70 64 99 83 73 69 46 60 87 95 98 99 99 90 94
33 34 32 30 33 46 44 39 44 56 69 76 74 73 73 77 81 81 79 76 69 63 60 54 48 49 65 85 100 87 73 100 99 98 64 52 76 99 79 100 100 99 100
39 38 41 47 48 50 55 56 54 52 50 49 48 48 47 45 43 40 39 38 36 34 33 34 38 39 39 41 41 42 43 41 37 42 48 50 71 100 89 97 95 100 97
51 49 54 60 60 63 63 63 65 66 65 63 61 59 57 57 56 55 54 54 55 54 54 54 54 53 51 50 50 50 49 47 46 45 44 45 52 54 87 95 99 87 98
62 62 65 65 63 65 66 65 65 65 66 66 64 62 62 60 59 58 56 54 53 51 51 50 48 47 51 52 52 52 51 50 48 47 46 46 47 49 51 55 58 79 73
71 69 69 70 69 66 64 65 65 66 67 67 68 69 72 70 67 65 63 61 57 51 47 45 43 45 48 49 49 48 49 48 45 44 44 44 46 47 46 47 49 53 51
100 97 95 94 92 90 87 86 81 77 77 77 80 80 76 70 66 65 62 60 60 59 57 55 52 50 51 53 55 56 56 54 53 51 49 47 46 44 44 47 48 52 52
62 65 66 71 80 79 76 85 91 93 76 74 79 80 68 66 62 58 58 58 58 58 57 56 57 57 58 59 59 58 58 56 55 52 49 49 49 50 49 51 54 57 59
11 8 7 8 8 9 9 9 9 10 10 9 8 12 18 12 8 8 9 9 12 15 20 24 30 38 42 43 43 44 46 49 51 52 52 55 56 56 56 57 60 64 67
Wind_Speed
15 20 25 27 27 27 25 24 23 22 21 19 16 14 13 14 14 14 14 13 13 13 12 11 11 10 10 10 10 10 10 11 11 10 9 8 8 9 10 11 11 12 12
18 20 23 27 28 27 27 27 25 24 22 19 17 16 16 16 17 16 14 14 14 14 14 13 12 12 11 11 12 11 11 11 11 11 10 10 11 11 12 12 13 14 14
15 20 20 23 27 28 28 28 27 25 23 21 20 19 18 18 16 15 15 16 16 16 15 15 14 13 13 13 12 12 12 12 12 12 12 12 12 13 14 14 14 15 16
16 17 18 17 20 23 26 24 24 27 25 24 22 20 19 17 16 18 20 18 17 17 16 16 16 15 15 14 14 13 13 13 14 13 14 14 14 15 15 16 17 18 18
17 14 10 8 9 18 25 24 23 25 25 25 23 21 21 20 19 20 19 18 18 17 16 16 16 16 17 17 15 15 15 15 15 15 16 16 16 16 18 18 18 19 20
21 17 14 12 10 13 18 27 28 26 26 25 24 24 23 21 21 20 19 18 19 18 17 17 17 18 19 18 18 17 16 17 17 17 17 18 18 18 19 19 19 20 20
20 22 20 16 14 12 14 18 29 30 29 28 27 26 24 24 23 23 22 21 20 19 18 19 19 19 20 20 20 19 18 18 18 19 18 18 19 20 20 20 21 21 22
22 22 22 20 17 16 16 18 20 29 31 29 28 28 26 25 25 25 24 23 22 21 21 22 22 21 21 22 22 21 20 20 19 20 20 20 20 21 21 22 23 24 24
27 22 22 24 22 19 17 17 20 22 26 32 28 30 27 27 27 26 25 25 25 25 24 25 25 25 24 24 24 23 22 22 21 21 22 21 22 23 23 24 24 27 27
31 31 27 26 26 24 21 21 21 23 23 25 26 26 28 30 31 28 30 29 28 29 29 28 28 27 27 26 25 24 23 24 23 24 24 24 24 25 26 27 27 28 30
22 30 34 30 29 28 25 24 24 24 27 29 29 30 31 29 28 29 29 29 29 31 32 31 33 30 29 28 27 26 26 27 26 26 27 27 28 29 29 31 31 31 32
28 26 33 34 32 32 31 28 27 28 29 31 32 33 32 31 32 32 32 33 25 32 32 32 33 32 31 29 28 28 29 29 29 29 31 30 31 32 33 34 34 34 35
40 38 31 37 36 36 37 35 32 32 32 32 33 34 32 33 35 37 34 32 36 32 32 34 34 33 31 32 31 32 33 33 33 33 34 34 35 36 35 34 35 36 36
35 38 39 37 39 39 40 40 39 38 37 35 34 34 33 35 37 37 36 36 36 36 36 36 36 37 37 36 36 36 37 37 37 37 38 38 40 39 39 38 38 37 38
34 35 38 40 42 40 40 41 41 41 41 40 40 38 37 36 36 37 38 40 40 40 40 40 41 41 41 40 39 40 42 42 42 42 42 42 42 43 43 42 38 40 38
32 31 32 36 39 41 43 43 44 45 44 43 43 42 41 40 39 40 40 40 41 42 43 44 44 45 45 44 43 44 46 46 47 47 46 46 46 45 45 47 40 43 41
15 20 26 30 32 34 37 40 41 42 44 44 45 43 43 42 41 41 42 42 42 41 42 43 45 47 47 46 46 46 48 49 49 50 50 51 50 48 48 45 46 46 45
30 31 30 26 28 32 34 35 35 34 35 37 39 40 42 42 42 42 42 43 44 44 45 44 44 45 48 47 46 47 46 51 49 51 51 51 49 49 47 47 50 49 47
36 31 31 32 30 30 32 34 33 32 31 31 33 34 35 36 38 40 41 41 42 42 42 43 44 44 48 46 49 51 48 46 52 55 55 50 47 51 46 51 50 50 46
35 34 33 31 31 30 31 31 30 31 31 32 32 32 33 34 36 37 38 38 40 40 40 38 38 40 40 41 43 44 46 50 49 48 48 42 45 49 47 47 54 49 46
36 35 33 31 31 30 30 30 29 27 27 27 28 28 28 28 28 28 28 29 30 30 31 31 31 33 34 34 35 35 37 38 38 38 36 36 39 41 43 48 47 46 50
34 36 34 34 33 33 33 32 31 31 30 30 30 30 31 32 33 33 34 34 35 36 36 38 40 41 41 42 42 42 42 43 44 43 41 40 41 42 45 47 48 49 52
30 32 33 34 35 37 37 37 37 37 37 37 37 37 37 39 41 42 44 46 48 51 53 54 54 51 50 50 51 51 51 51 52 52 52 51 50 50 50 50 49 50 51
23 27 30 33 35 37 38 37 39 41 42 43 44 45 46 46 47 49 51 52 52 54 55 56 56 56 55 55 55 56 56 56 56 56 56 56 56 56 56 55 55 53 51
21 22 23 25 27 29 31 32 34 34 34 35 37 40 41 42 43 44 45 47 48 50 50 52 53 54 54 55 56 55 56 56 55 55 56 56 56 56 56 54 52 51 50
23 23 22 21 22 23 25 26 28 30 31 32 34 35 36 37 39 39 39 40 43 44 46 48 49 49 51 52 53 52 51 51 51 51 52 51 51 52 52 51 49 47 45
Wind_Direction
195 190 189 192 193 194 197 200 204 209 213 219 223 226 222 213 209 205 204 208 209 209 210 210 214 218 224 226 228 231 234 236 239 245 247 252 259 268 279 287 295 299 302
203 196 196 197 199 202 203 206 210 213 216 220 224 219 219 212 210 209 209 211 216 215 215 217 221 224 229 233 233 234 237 243 246 247 252 253 258 268 277 285 291 295 300
215 207 205 207 207 206 209 213 216 218 218 220 222 223 219 215 213 210 215 217 220 219 221 222 225 226 228 235 239 240 242 244 247 250 252 254 259 265 273 281 288 292 293
205 213 218 217 223 220 220 216 220 221 220 221 221 222 221 214 212 214 219 220 223 226 226 230 231 233 234 236 240 241 243 245 247 249 254 257 262 269 274 280 285 287 289
208 204 207 215 236 235 234 219 217 213 216 220 221 223 221 215 213 216 218 219 224 227 230 234 236 237 237 237 240 244 245 247 250 251 256 261 264 270 276 279 282 286 287
217 214 215 219 234 246 237 221 226 218 217 220 225 227 229 223 215 217 219 216 219 224 230 233 233 235 236 238 239 241 247 250 252 254 255 260 264 268 272 277 281 282 284
226 223 223 223 224 241 249 246 230 229 229 227 228 230 233 230 222 219 220 220 222 224 228 232 234 236 237 237 240 244 245 249 252 254 256 259 264 268 273 278 279 281 284
227 229 231 232 230 234 241 236 241 234 239 239 234 229 227 228 226 225 223 225 226 226 229 233 232 234 236 238 241 244 246 250 254 256 258 260 263 267 271 275 279 282 284
235 230 229 235 240 234 233 237 236 239 233 236 234 234 230 229 230 231 234 230 231 232 233 235 234 234 236 239 240 241 244 247 250 253 257 259 263 267 270 274 278 282 286
239 241 235 234 236 236 234 229 227 227 229 227 231 240 239 237 237 236 240 238 241 240 235 239 239 239 239 241 243 244 247 249 251 253 256 260 263 266 270 273 276 279 283
246 247 239 234 233 233 231 233 230 226 221 222 227 231 235 236 239 239 240 234 248 246 247 236 237 242 241 242 245 247 249 252 253 256 259 261 263 267 270 273 275 278 281
250 249 243 237 235 234 231 231 231 229 231 230 226 228 230 235 239 242 246 247 242 247 247 248 248 247 249 249 249 251 253 256 257 260 262 264 266 268 270 273 276 277 279
250 250 252 240 238 237 234 234 234 233 232 233 235 237 233 240 241 243 241 243 248 247 249 250 249 249 249 252 252 253 255 256 258 259 261 265 266 268 270 273 275 275 276
246 246 248 247 241 239 238 236 236 238 239 239 239 241 243 247 248 247 247 245 247 249 246 249 251 252 252 251 252 254 256 257 258 260 262 264 267 271 272 272 274 274 274
248 249 249 246 243 242 240 241 241 240 240 241 244 246 246 247 249 251 250 247 248 249 249 249 250 252 253 254 256 258 259 260 260 261 262 265 269 272 276 275 277 279 278
260 259 255 253 252 251 252 251 249 248 246 245 246 246 248 251 253 254 257 257 254 251 251 252 252 253 254 256 257 258 259 261 262 264 265 266 268 270 273 271 274 275 278
277 275 266 261 258 257 256 255 254 255 254 252 250 251 251 250 253 257 258 259 260 260 259 257 257 257 258 258 258 259 261 262 264 265 266 268 270 273 273 276 275 275 273
275 277 281 281 270 264 262 261 261 260 258 257 255 254 255 255 255 256 258 260 261 263 264 265 261 264 260 259 263 260 265 268 268 268 268 268 267 267 271 271 269 268 269
273 270 269 270 273 270 266 263 260 260 259 257 255 255 255 256 256 257 259 260 261 263 264 265 267 263 264 256 259 268 262 258 265 269 275 274 270 271 273 266 269 269 265
261 262 258 255 255 260 262 262 259 257 255 255 256 256 256 256 257 257 258 259 260 261 262 263 265 267 268 268 268 267 265 267 267 267 269 273 269 266 272 261 266 267 275
255 256 259 258 258 257 257 258 258 255 253 252 252 252 253 252 252 253 255 258 261 262 263 265 266 267 267 266 266 266 266 268 269 269 270 271 267 267 262 262 267 273 269
254 256 255 254 254 254 253 253 255 258 258 257 257 257 258 258 259 258 260 261 262 263 265 270 274 273 269 268 267 267 268 269 270 270 270 270 269 269 268 270 267 266 265
256 257 260 261 259 256 256 258 258 258 258 257 256 257 259 263 265 264 265 267 269 271 272 273 273 270 265 265 267 266 266 266 268 270 271 271 270 271 271 272 272 271 271
259 261 263 265 267 266 264 262 262 262 263 264 265 267 271 273 274 273 271 269 268 268 268 266 267 265 264 264 265 267 267 267 268 269 269 269 270 270 271 272 273 274 275
264 263 263 266 269 273 274 275 274 273 274 273 273 272 271 269 268 269 268 268 267 266 264 264 264 264 264 264 265 265 267 267 268 268 269 271 273 274 274 274 275 275 275
272 274 276 275 275 274 274 275 278 278 277 276 275 274 275 276 276 272 269 268 268 268 268 267 267 267 268 267 265 265 266 268 269 269 269 271 272 273 273 273 272 272 272